FW5647 Weather Reports


time (UTC)temp
F
wind
direction
speed
knots
gust
knots
rain 1hr
in
rain 24hr
in
rain mn
in
humidity
%
barometer
mb
20260903034551 74 0 0.0 1.7 0.00 0.00 0.00 81 1013.9
20260903033045 74 127 0.0 4.3 0.00 0.00 0.00 79 1014.1
20260903031622 75 0 0.0 4.3 0.00 0.00 0.00 78 1014.2
20260903030054 79 340 6.1 13.9 0.00 0.00 0.00 73 1014.2
20260903024548 81 0 0.9 4.3 0.00 0.00 0.00 80 1013.2
20260903023044 80 257 0.9 3.5 0.00 0.00 0.00 81 1012.3
20260903021543 79 0 0.0 0.0 0.00 0.00 0.00 83 1012.3
20260903020052 79 0 0.0 0.0 0.00 0.00 0.00 82 1013.5
20260903014555 80 0 0.0 0.0 0.00 0.00 0.00 81 1013.5
20260903013044 80 0 0.0 0.0 0.00 0.00 0.00 80 1013.4
20260903011556 81 0 0.0 0.0 0.00 0.00 0.00 79 1013.3
20260903010050 82 0 0.0 0.0 0.00 0.00 0.00 78 1013.0
20260903004550 82 0 0.0 0.9 0.00 0.00 0.00 77 1012.9
20260903003046 83 0 0.0 0.9 0.00 0.00 0.00 76 1012.8
20260903001544 84 0 0.0 0.0 0.00 0.00 0.00 74 1012.6
20260903000047 85 0 0.0 0.0 0.00 0.00 0.00 71 1012.7
20260902234554 87 0 0.0 0.9 0.00 0.00 0.00 70 1012.8
20260902233048 88 0 0.0 4.3 0.00 0.00 0.00 67 1012.7
20260902231549 89 264 0.0 7.0 0.00 0.00 0.00 64 1012.7
20260902230046 90 262 0.9 7.0 0.00 0.00 0.00 64 1012.6
20260902224551 90 245 0.9 7.0 0.00 0.00 0.00 63 1012.7
20260902223046 90 245 3.5 7.8 0.00 0.00 0.00 62 1012.7
20260902221541 90 226 0.9 10.4 0.00 0.00 0.00 61 1012.7
20260902220041 92 265 2.6 12.2 0.00 0.00 0.00 60 1012.2
20260902214547 92 219 1.7 7.8 0.00 0.00 0.00 60 1012.7
20260902213048 92 226 0.9 12.2 0.00 0.00 0.00 59 1013.0
20260902211547 92 247 1.7 15.6 0.00 0.00 0.00 58 1013.2
20260902210046 92 226 2.6 12.2 0.00 0.00 0.00 58 1013.2
20260902204542 92 201 2.6 9.6 0.00 0.00 0.00 60 1013.2
20260902203058 92 218 3.5 12.2 0.00 0.00 0.00 61 1013.3
20260902201545 92 188 2.6 8.7 0.00 0.00 0.00 57 1013.6
20260902200053 93 184 1.7 13.0 0.00 0.00 0.00 56 1013.6
20260902194544 93 244 3.5 10.4 0.00 0.00 0.00 57 1013.9
20260902193042 92 101 1.7 13.0 0.00 0.00 0.00 57 1014.2
20260902191550 92 227 4.3 10.4 0.00 0.00 0.00 58 1014.3
20260902190049 92 261 4.3 12.2 0.00 0.00 0.00 59 1014.3
20260902184550 92 185 2.6 11.3 0.00 0.00 0.00 61 1014.4
20260902183107 92 244 1.7 8.7 0.00 0.00 0.00 59 1014.4
20260902181543 92 328 3.5 8.7 0.00 0.00 0.00 58 1014.6
20260902180042 91 177 4.3 8.7 0.00 0.00 0.00 59 1014.8
20260902174540 91 271 3.5 7.0 0.00 0.00 0.00 61 1015.0
20260902173044 92 308 1.7 7.0 0.00 0.00 0.00 61 1015.3
20260902171541 91 331 1.7 9.6 0.00 0.00 0.00 62 1015.3
20260902170046 91 234 1.7 5.2 0.00 0.00 0.00 62 1015.7
20260902164543 90 285 2.6 7.8 0.00 0.00 0.00 63 1015.7
20260902163057 90 252 2.6 6.1 0.00 0.00 0.00 63 1015.6
20260902161550 88 262 4.3 9.6 0.00 0.00 0.00 66 1015.9
20260902160039 88 297 2.6 9.6 0.00 0.00 0.00 66 1015.8
20260902154538 88 282 1.7 7.0 0.00 0.00 0.00 67 1015.8
20260902153042 87 141 4.3 9.6 0.00 0.00 0.00 69 1015.8
20260902151548 86 273 1.7 7.8 0.00 0.00 0.00 71 1015.6
20260902150043 85 219 2.6 6.1 0.00 0.00 0.00 73 1015.6
20260902144543 85 278 1.7 4.3 0.00 0.00 0.00 74 1015.7
20260902143042 84 240 1.7 6.1 0.00 0.00 0.00 75 1015.4
20260902141547 83 230 1.7 7.8 0.00 0.00 0.00 77 1015.5
20260902140047 83 220 1.7 6.1 0.00 0.00 0.00 77 1015.5
20260902134547 82 207 0.9 4.3 0.00 0.00 0.00 81 1015.5
20260902133040 80 233 0.9 5.2 0.00 0.00 0.00 83 1015.7
20260902131542 79 273 1.7 6.1 0.00 0.00 0.00 85 1015.6
20260902130041 78 248 0.0 4.3 0.00 0.00 0.00 88 1015.5
20260902124541 76 0 0.9 5.2 0.00 0.00 0.00 90 1015.6
20260902123101 75 218 0.0 2.6 0.00 0.00 0.00 93 1015.6
20260902121553 74 0 0.0 0.9 0.00 0.00 0.00 95 1015.3
20260902120044 73 0 0.0 0.9 0.00 0.00 0.00 95 1015.5
20260902114541 73 0 0.0 0.9 0.00 0.00 0.00 94 1015.4
20260902113040 73 0 0.0 1.7 0.00 0.00 0.00 94 1015.5
20260902111546 74 200 0.0 0.9 0.00 0.00 0.00 94 1015.3
20260902110042 74 0 0.0 1.7 0.00 0.00 0.00 94 1015.9
20260902104542 74 255 0.9 4.3 0.00 0.00 0.00 95 1015.6
20260902103043 73 0 0.0 0.9 0.00 0.00 0.00 95 1015.6
20260902101538 73 0 0.0 0.9 0.00 0.00 0.00 95 1015.3
20260902100038 74 0 0.0 1.7 0.00 0.00 0.00 95 1015.1
20260902094541 73 0 0.0 0.9 0.00 0.00 0.00 95 1015.0
20260902093040 73 0 0.0 0.0 0.00 0.00 0.00 94 1015.2
20260902091539 74 0 0.0 0.0 0.00 0.00 0.00 94 1015.1
20260902090040 74 0 0.0 0.9 0.00 0.00 0.00 94 1015.0
20260902084541 74 0 0.0 1.7 0.00 0.00 0.00 94 1014.9
20260902083038 75 257 0.9 2.6 0.00 0.00 0.00 94 1014.9
20260902081542 74 229 0.0 0.9 0.00 0.00 0.00 95 1014.9
20260902080040 74 0 0.0 1.7 0.00 0.00 0.00 95 1015.0
20260902074542 74 240 0.0 0.9 0.00 0.00 0.00 94 1014.8
20260902073040 74 0 0.0 1.7 0.00 0.00 0.00 95 1014.9
20260902071541 74 0 0.0 0.9 0.00 0.00 0.00 94 1014.7
20260902070042 74 0 0.0 0.9 0.00 0.00 0.00 95 1014.7
20260902064537 74 221 0.0 3.5 0.00 0.00 0.00 95 1014.6
20260902063052 74 0 0.0 1.7 0.00 0.00 0.00 95 1014.6
20260902061539 73 0 0.0 0.0 0.00 0.00 0.00 95 1014.8
20260902060041 72 0 0.0 0.0 0.00 0.00 0.00 95 1015.0
20260902054545 72 0 0.0 0.0 0.00 0.00 0.00 94 1015.2
20260902053043 72 0 0.0 0.0 0.00 0.00 0.00 94 1015.3
20260902051545 72 0 0.0 0.0 0.00 0.00 0.00 94 1015.2
20260902050057 72 0 0.0 0.0 0.00 0.00 0.00 94 1015.3
20260902044539 72 0 0.0 0.0 0.00 0.00 0.00 93 1015.5
20260902043044 72 0 0.0 0.0 0.00 0.00 0.00 93 1015.4
20260902041540 72 0 0.0 0.0 0.00 0.00 0.00 93 1015.4
20260902040042 72 0 0.0 0.9 0.00 0.00 0.00 93 1015.3